Date String (YYYY-MM-DD hh:mm:ss) UTC,Instrument flags,absolute air pressure of the measurement (hPa),sample flow rate (lpm),inlet stack bypass flow (lpm),air temperature of the measurement (°C),ambient temperature measured by the external sensor (°C),aerosol sample conditioner tube jacket temperature (°C),OPC LED temperature (°C),internal box temperature (°C),relative humidity of the measurement (%),span deviation,mass concentration of particles derived from Lorenz-Mie calculation of OPC scattering (μg/m³),mass concentration of particles derived from Lorenz-Mie calculation of OPC scattering (μg/m³),mass concentration of particles derived from Lorenz-Mie calculation of OPC scattering (μg/m³)
DateTimeUTC,F1_M11,P_M11,Q1_M11,Q2_M11,T1_M11,T2_M11,T3_M11,T4_M11,T5_M11,U1_M11,ZSPAN_M11,X0_M11,X2_M11,X1_M11
2023-08-17 20:00:00,SystemResetWarning,0833.9,5.01,000.00,027.7,024.2,000.0,035.9,029.0,34.1,0001.5,0029.48,0015.77,0013.90
2023-08-17 20:01:00,SystemResetWarning,0833.9,5.00,000.00,027.7,024.6,000.0,036.0,029.0,34.0,0001.3,0029.38,0015.76,0013.94
2023-08-17 20:02:00,SystemResetWarning,0833.9,5.00,000.00,027.7,025.1,000.0,036.0,029.2,34.1,0001.4,0029.57,0015.76,0013.96
2023-08-17 20:03:00,SystemResetWarning,0834.0,5.00,000.00,027.7,025.5,000.0,036.0,029.3,34.2,0001.7,0029.84,0015.82,0013.96
2023-08-17 20:04:00,SystemResetWarning,0834.0,5.00,000.00,027.8,025.9,000.0,036.0,029.5,34.1,0001.7,0029.31,0015.77,0013.94
2023-08-17 20:05:00,SystemResetWarning,0834.0,5.00,000.00,027.8,026.3,000.0,036.1,029.6,33.9,0001.8,0028.65,0015.75,0013.90
2023-08-17 20:06:00,SystemResetWarning,0834.0,4.99,000.00,027.9,025.7,000.0,036.0,029.5,33.8,0001.8,0028.78,0015.73,0013.87
2023-08-17 20:07:00,SystemResetWarning,0833.9,4.99,000.00,027.8,024.4,000.0,035.9,029.2,33.9,0001.7,0028.57,0015.79,0013.86
2023-08-17 20:08:00,SystemResetWarning,0833.9,5.02,000.00,027.7,024.0,000.0,035.9,029.1,34.2,0001.9,0028.63,0015.84,0013.84
2023-08-17 20:09:00,SystemResetWarning,0833.8,5.00,000.00,027.7,024.3,000.0,035.9,029.0,33.9,0002.1,0030.72,0015.74,0013.77
2023-08-17 20:10:00,SystemResetWarning,0833.9,5.00,000.00,027.6,024.6,000.0,035.9,029.0,34.1,0002.3,0030.90,0015.61,0013.72
2023-08-17 20:11:00,SystemResetWarning,0833.9,5.00,000.00,027.6,025.1,000.0,035.9,029.2,34.5,0002.5,0029.65,0015.47,0013.66
2023-08-17 20:12:00,SystemResetWarning,0833.9,5.01,000.00,027.7,025.5,000.0,036.0,029.3,34.3,0002.8,0030.93,0015.54,0013.60
2023-08-17 20:13:00,SystemResetWarning,0833.8,5.00,000.00,027.7,025.9,000.0,036.0,029.5,34.2,0002.8,0032.12,0015.60,0013.56
2023-08-17 20:14:00,SystemResetWarning,0833.9,4.99,000.00,027.8,026.1,000.0,036.0,029.5,33.9,0002.7,0032.41,0015.54,0013.51
2023-08-17 20:15:00,SystemResetWarning,0833.8,4.99,000.00,027.8,025.0,000.0,035.9,029.3,34.2,0002.2,0032.60,0015.56,0013.50
2023-08-17 20:16:00,SystemResetWarning,0833.8,5.01,000.00,027.7,024.1,000.0,035.9,029.1,34.5,0002.2,0033.01,0015.48,0013.49
2023-08-17 20:17:00,SystemResetWarning,0833.8,5.01,000.00,027.6,024.1,000.0,035.8,029.0,34.0,0002.1,0033.73,0015.43,0013.44
2023-08-17 20:18:00,SystemResetWarning,0833.8,5.00,000.00,027.6,024.4,000.0,035.9,029.0,34.3,0001.9,0034.08,0015.31,0013.39
2023-08-17 20:19:00,SystemResetWarning,0833.8,5.00,000.00,027.6,024.9,000.0,035.9,029.1,34.5,0001.8,0034.78,0015.19,0013.35
2023-08-17 20:20:00,SystemResetWarning,0833.8,5.00,000.00,027.6,025.3,000.0,035.9,029.2,34.4,0001.8,0033.38,0015.15,0013.32
2023-08-17 20:21:00,SystemResetWarning,0833.8,4.99,000.00,027.7,025.7,000.0,035.9,029.4,35.0,0001.7,0032.26,0015.10,0013.27
2023-08-17 20:22:00,SystemResetWarning,0833.8,5.03,000.00,027.8,026.1,000.0,036.0,029.5,34.7,0001.8,0032.67,0015.18,0013.26
2023-08-17 20:23:00,SystemResetWarning,0833.8,4.97,000.00,028.0,026.3,000.0,036.0,029.6,34.0,0001.6,0031.94,0015.06,0013.25
2023-08-17 20:24:00,SystemResetWarning,0833.8,5.01,000.00,028.0,025.1,000.0,035.9,029.4,33.8,0001.5,0030.86,0014.98,0013.23
2023-08-17 20:25:00,SystemResetWarning,0833.7,4.99,000.00,028.0,024.1,000.0,035.9,029.0,34.3,0001.2,0030.13,0014.94,0013.23
2023-08-17 20:26:00,SystemResetWarning,0833.7,4.99,000.00,027.9,024.2,000.0,035.9,029.0,33.7,0001.4,0029.57,0014.87,0013.22
2023-08-17 20:27:00,SystemResetWarning,0833.7,5.02,000.00,027.9,024.5,000.0,035.9,029.0,33.7,0001.4,0029.02,0014.87,0013.23
2023-08-17 20:28:00,SystemResetWarning,0833.7,4.99,000.00,027.9,024.9,000.0,036.0,029.1,33.9,0001.2,0028.27,0014.84,0013.25
2023-08-17 20:29:00,SystemResetWarning,0833.7,4.99,000.00,027.9,025.4,000.0,036.0,029.3,33.7,0001.4,0027.91,0014.90,0013.29
2023-08-17 20:30:00,SystemResetWarning,0833.7,5.01,000.00,028.0,025.8,000.0,036.1,029.4,33.6,0001.2,0028.12,0014.89,0013.32
2023-08-17 20:31:00,SystemResetWarning,0833.7,5.01,000.00,028.0,026.1,000.0,036.1,029.5,33.6,0001.2,0028.08,0014.96,0013.36
2023-08-17 20:32:00,SystemResetWarning,0833.6,4.99,000.00,028.1,025.8,000.0,036.1,029.5,33.5,0000.9,0027.77,0015.03,0013.39
2023-08-17 20:33:00,SystemResetWarning,0833.6,4.99,000.00,028.0,024.5,000.0,036.0,029.3,33.5,0000.6,0027.70,0015.02,0013.41
2023-08-17 20:34:00,SystemResetWarning,0833.5,5.02,000.00,027.9,024.1,000.0,036.0,029.1,33.3,0000.9,0026.63,0015.07,0013.41
2023-08-17 20:35:00,SystemResetWarning,0833.5,5.00,000.00,027.9,024.3,000.0,036.0,029.1,33.5,0001.0,0026.76,0015.08,0013.43
2023-08-17 20:36:00,SystemResetWarning,0833.4,5.00,000.00,027.8,024.7,000.0,036.0,029.1,33.6,0001.4,0027.10,0015.11,0013.45
2023-08-17 20:37:00,SystemResetWarning,0833.4,5.00,000.00,027.9,025.1,000.0,036.0,029.2,33.6,0001.6,0027.16,0015.15,0013.43
2023-08-17 20:38:00,SystemResetWarning,0833.4,5.00,000.00,027.9,025.6,000.0,036.1,029.4,33.7,0001.4,0027.77,0015.19,0013.41
2023-08-17 20:39:00,SystemResetWarning,0833.4,5.00,000.00,027.9,026.0,000.0,036.1,029.5,34.2,0001.4,0027.12,0015.22,0013.39
2023-08-17 20:40:00,SystemResetWarning,0833.4,4.99,000.00,028.0,026.2,000.0,036.1,029.6,34.3,0001.2,0026.51,0015.17,0013.35
2023-08-17 20:41:00,SystemResetWarning,0833.4,4.99,000.00,028.0,025.1,000.0,036.1,029.4,33.9,0001.5,0026.06,0015.18,0013.30
2023-08-17 20:42:00,SystemResetWarning,0833.4,5.01,000.00,027.9,024.1,000.0,036.0,029.1,33.8,0001.3,0025.90,0015.14,0013.28
2023-08-17 20:43:00,SystemResetWarning,0833.4,5.01,000.00,027.8,024.1,000.0,035.9,029.1,33.8,0001.5,0026.17,0015.07,0013.26
2023-08-17 20:44:00,SystemResetWarning,0833.4,5.00,000.00,027.8,024.4,000.0,036.0,029.0,33.9,0001.7,0026.31,0015.00,0013.22
2023-08-17 20:45:00,SystemResetWarning,0833.4,5.00,000.00,027.8,024.9,000.0,036.0,029.1,34.0,0001.7,0027.02,0014.94,0013.21
2023-08-17 20:46:00,SystemResetWarning,0833.4,5.00,000.00,027.8,025.3,000.0,036.0,029.3,34.2,0001.6,0026.49,0014.92,0013.21
2023-08-17 20:47:00,SystemResetWarning,0833.4,5.00,000.00,027.8,025.7,000.0,036.1,029.4,34.2,0001.7,0026.13,0014.85,0013.19
2023-08-17 20:48:00,SystemResetWarning,0833.3,4.99,000.00,027.9,026.1,000.0,036.1,029.5,33.6,0001.7,0027.19,0014.86,0013.19
2023-08-17 20:49:00,SystemResetWarning,0833.3,4.99,000.00,027.9,025.9,000.0,036.1,029.5,33.7,0002.1,0027.89,0014.83,0013.19
2023-08-17 20:50:00,SystemResetWarning,0833.2,5.01,000.00,027.9,024.5,000.0,036.0,029.3,33.7,0002.4,0027.89,0014.79,0013.15
2023-08-17 20:51:00,SystemResetWarning,0833.2,5.00,000.00,027.8,024.0,000.0,035.9,029.1,33.6,0002.3,0027.97,0014.73,0013.11
2023-08-17 20:52:00,SystemResetWarning,0833.2,5.01,000.00,027.8,024.2,000.0,035.9,029.0,34.0,0002.0,0027.60,0014.69,0013.08
2023-08-17 20:53:00,SystemResetWarning,0833.2,5.01,000.00,027.7,024.6,000.0,035.9,029.0,34.5,0001.8,0028.00,0014.64,0013.03
2023-08-17 20:54:00,SystemResetWarning,0833.2,4.98,000.00,027.7,025.0,000.0,036.0,029.2,34.9,0001.8,0028.68,0014.57,0012.98
2023-08-17 20:55:00,SystemResetWarning,0833.2,5.01,000.00,027.8,025.5,000.0,036.0,029.3,34.2,0001.9,0027.75,0014.49,0012.92
2023-08-17 20:56:00,SystemResetWarning,0833.2,5.01,000.00,027.9,025.9,000.0,036.0,029.5,34.4,0001.9,0027.23,0014.41,0012.82
2023-08-17 20:57:00,SystemResetWarning,0833.2,5.00,000.00,027.9,026.2,000.0,036.1,029.6,33.4,0001.7,0027.53,0014.35,0012.74
2023-08-17 20:58:00,SystemResetWarning,0833.2,4.99,000.00,028.0,025.3,000.0,036.0,029.4,33.1,0001.5,0027.43,0014.34,0012.67
2023-08-17 20:59:00,SystemResetWarning,0833.1,5.01,000.00,027.9,024.0,000.0,035.9,029.2,33.2,0001.6,0026.73,0014.21,0012.60
